Latest Weather Observations for Melville Water

IDW60801

Issued at 12:33 pm WST Friday 30 September 2016 (issued every 30 minutes, with the page automatically refreshed every 10 minutes)

About weather observations | Map of weather stations | Latest weather observations for WA | Other Formats
Station Details ID: 009091 Name: INNER DOLPHIN PYLON Lat: -31.99 Lon: 115.83 Height: 0.0 m
Data from the previous 72 hours. | See also: Recent months at Melville Water
Date/Time
WST
Temp
°C
App
Temp
°C
Dew
Point
°C
Rel
Hum
%
Delta-T
°C
Wind Press
QNH
hPa
Press
MSL
hPa
Rain since
9am
mm
Dir  Spd
km/h
Gust
km/h
Spd
kts
Gust
kts
30/12:30pm - - - - - W 22 33 12 18 - - -
30/12:00pm - - - - - WNW 22 32 12 17 - - -
30/11:30am - - - - - WNW 30 46 16 25 - - -
30/11:12am - - - - - WNW 28 50 15 27 - - -
30/11:00am - - - - - NW 28 43 15 23 - - -
30/10:40am - - - - - NW 28 46 15 25 - - -
30/10:30am - - - - - NW 28 41 15 22 - - -
30/10:00am - - - - - NW 30 39 16 21 - - -
30/09:30am - - - - - NW 22 35 12 19 - - -
30/09:00am - - - - - WNW 22 32 12 17 - - -
30/08:30am - - - - - NW 19 28 10 15 - - -
30/08:00am - - - - - ENE 13 17 7 9 - - -
30/07:30am - - - - - NE 13 17 7 9 - - -
30/07:00am - - - - - NE 17 19 9 10 - - -
30/06:30am - - - - - NE 15 19 8 10 - - -
30/06:00am - - - - - ENE 13 17 7 9 - - -
30/05:30am - - - - - ENE 13 17 7 9 - - -
30/05:00am - - - - - NE 11 13 6 7 - - -
30/04:30am - - - - - NE 9 11 5 6 - - -
30/04:00am - - - - - ENE 9 13 5 7 - - -
30/03:30am - - - - - NNE 7 11 4 6 - - -
30/03:00am - - - - - N 6 9 3 5 - - -
30/02:30am - - - - - ENE 6 7 3 4 - - -
30/02:00am - - - - - N 6 7 3 4 - - -
30/01:30am - - - - - N 4 6 2 3 - - -
30/01:00am - - - - - NW 6 7 3 4 - - -
30/12:30am - - - - - ENE 2 4 1 2 - - -
30/12:00am - - - - - ENE 4 7 2 4 - - -
 
Date/Time
WST
Temp
°C
App
Temp
°C
Dew
Point
°C
Rel
Hum
%
Delta-T
°C
Wind Press
QNH
hPa
Press
MSL
hPa
Rain since
9am
mm
Dir  Spd
km/h
Gust
km/h
Spd
kts
Gust
kts
29/11:30pm - - - - - E 4 6 2 3 - - -
29/11:00pm - - - - - SE 4 6 2 3 - - -
29/10:30pm - - - - - ESE 6 7 3 4 - - -
29/10:00pm - - - - - ESE 6 9 3 5 - - -
29/09:30pm - - - - - SE 11 15 6 8 - - -
29/09:00pm - - - - - SE 11 13 6 7 - - -
29/08:30pm - - - - - S 9 11 5 6 - - -
29/08:00pm - - - - - SSW 9 13 5 7 - - -
29/07:30pm - - - - - SW 11 13 6 7 - - -
29/07:00pm - - - - - SW 15 19 8 10 - - -
29/06:30pm - - - - - SW 19 24 10 13 - - -
29/06:00pm - - - - - WSW 19 22 10 12 - - -
29/05:30pm - - - - - WSW 17 20 9 11 - - -
29/05:00pm - - - - - WSW 17 20 9 11 - - -
29/04:30pm - - - - - WSW 20 26 11 14 - - -
29/04:00pm - - - - - WSW 17 22 9 12 - - -
29/03:30pm - - - - - WSW 15 19 8 10 - - -
29/03:00pm - - - - - WSW 15 19 8 10 - - -
29/02:30pm - - - - - WSW 20 24 11 13 - - -
29/02:00pm - - - - - SSW 11 24 6 13 - - -
29/01:30pm - - - - - SE 7 17 4 9 - - -
29/01:00pm - - - - - S 2 7 1 4 - - -
29/12:30pm - - - - - ENE 4 11 2 6 - - -
29/12:00pm - - - - - SE 2 4 1 2 - - -
29/11:30am - - - - - ENE 11 15 6 8 - - -
29/11:00am - - - - - ENE 11 17 6 9 - - -
29/10:30am - - - - - ENE 9 15 5 8 - - -
29/10:00am - - - - - ENE 9 17 5 9 - - -
29/09:30am - - - - - ENE 15 20 8 11 - - -
29/09:00am - - - - - ENE 20 28 11 15 - - -
29/08:30am - - - - - ENE 24 30 13 16 - - -
29/08:00am - - - - - ENE 24 30 13 16 - - -
29/07:30am - - - - - ENE 22 30 12 16 - - -
29/07:00am - - - - - ENE 19 24 10 13 - - -
29/06:30am - - - - - ENE 22 30 12 16 - - -
29/06:00am - - - - - ENE 26 32 14 17 - - -
29/05:30am - - - - - ENE 20 28 11 15 - - -
29/05:00am - - - - - ENE 19 24 10 13 - - -
29/04:30am - - - - - ENE 15 19 8 10 - - -
29/04:00am - - - - - E 17 24 9 13 - - -
29/03:30am - - - - - E 13 17 7 9 - - -
29/03:00am - - - - - E 11 15 6 8 - - -
29/02:30am - - - - - ESE 9 11 5 6 - - -
29/02:00am - - - - - ESE 11 15 6 8 - - -
29/01:30am - - - - - E 7 9 4 5 - - -
29/01:00am - - - - - E 9 11 5 6 - - -
29/12:30am - - - - - ESE 9 13 5 7 - - -
29/12:00am - - - - - ESE 11 13 6 7 - - -
 
Date/Time
WST
Temp
°C
App
Temp
°C
Dew
Point
°C
Rel
Hum
%
Delta-T
°C
Wind Press
QNH
hPa
Press
MSL
hPa
Rain since
9am
mm
Dir  Spd
km/h
Gust
km/h
Spd
kts
Gust
kts
28/11:30pm - - - - - SE 7 9 4 5 - - -
28/11:00pm - - - - - SSE 6 9 3 5 - - -
28/10:30pm - - - - - SE 9 11 5 6 - - -
28/10:00pm - - - - - SE 13 15 7 8 - - -
28/09:30pm - - - - - SE 15 19 8 10 - - -
28/09:00pm - - - - - SSE 15 19 8 10 - - -
28/08:30pm - - - - - S 13 19 7 10 - - -
28/08:00pm - - - - - SSW 15 19 8 10 - - -
28/07:30pm - - - - - SSW 17 20 9 11 - - -
28/07:00pm - - - - - SSW 19 26 10 14 - - -
28/06:30pm - - - - - SSW 22 28 12 15 - - -
28/06:00pm - - - - - SSW 26 30 14 16 - - -
28/05:30pm - - - - - SW 24 30 13 16 - - -
28/05:00pm - - - - - SW 22 28 12 15 - - -
28/04:30pm - - - - - SW 22 28 12 15 - - -
28/04:00pm - - - - - SW 22 30 12 16 - - -
28/03:30pm - - - - - SW 24 32 13 17 - - -
28/03:00pm - - - - - SSW 20 30 11 16 - - -
28/02:30pm - - - - - SW 20 32 11 17 - - -
28/02:00pm - - - - - SW 22 32 12 17 - - -
28/01:30pm - - - - - SW 24 33 13 18 - - -
28/01:00pm - - - - - SSW 20 28 11 15 - - -
28/12:30pm - - - - - SW 20 28 11 15 - - -
28/12:00pm - - - - - SSW 20 28 11 15 - - -
28/11:30am - - - - - SSW 20 30 11 16 - - -
28/11:00am - - - - - SSW 19 28 10 15 - - -
28/10:30am - - - - - S 26 39 14 21 - - -
28/10:00am - - - - - S 24 35 13 19 - - -
28/09:30am - - - - - S 26 37 14 20 - - -
28/09:00am - - - - - S 24 32 13 17 - - -
28/08:30am - - - - - S 19 30 10 16 - - -
28/08:00am - - - - - SSE 22 33 12 18 - - -
28/07:30am - - - - - SSE 19 32 10 17 - - -
28/07:00am - - - - - S 17 20 9 11 - - -
28/06:30am - - - - - S 15 20 8 11 - - -
28/06:00am - - - - - SSE 17 20 9 11 - - -
28/05:30am - - - - - SSE 17 22 9 12 - - -
28/05:00am - - - - - SSE 19 24 10 13 - - -
28/04:30am - - - - - SSE 15 19 8 10 - - -
28/04:00am - - - - - SSE 13 19 7 10 - - -
28/03:30am - - - - - SSE 13 17 7 9 - - -
28/03:00am - - - - - S 19 24 10 13 - - -
28/02:30am - - - - - S 11 17 6 9 - - -
28/02:00am - - - - - S 17 22 9 12 - - -
28/01:30am - - - - - S 24 33 13 18 - - -
28/01:00am - - - - - S 24 32 13 17 - - -
28/12:30am - - - - - S 19 26 10 14 - - -
28/12:00am - - - - - S 22 37 12 20 - - -
 
Date/Time
WST
Temp
°C
App
Temp
°C
Dew
Point
°C
Rel
Hum
%
Delta-T
°C
Wind Press
QNH
hPa
Press
MSL
hPa
Rain since
9am
mm
Dir  Spd
km/h
Gust
km/h
Spd
kts
Gust
kts
27/11:30pm - - - - - SSW 35 48 19 26 - - -
27/11:22pm - - - - - SSW 28 46 15 25 - - -
27/11:00pm - - - - - SSW 33 43 18 23 - - -
27/10:30pm - - - - - SW 43 59 23 32 - - -
27/10:04pm - - - - - SW 39 59 21 32 - - -
27/10:00pm - - - - - SW 39 54 21 29 - - -
27/09:48pm - - - - - SW 43 61 23 33 - - -
27/09:30pm - - - - - SW 35 46 19 25 - - -
27/09:04pm - - - - - SW 37 67 20 36 - - -
27/09:00pm - - - - - SW 39 50 21 27 - - -
27/08:41pm - - - - - SW 41 59 22 32 - - -
27/08:30pm - - - - - SW 41 57 22 31 - - -
27/08:00pm - - - - - SW 44 57 24 31 - - -
27/07:33pm - - - - - SW 41 61 22 33 - - -
27/07:30pm - - - - - SW 39 48 21 26 - - -
27/07:07pm - - - - - WSW 30 56 16 30 - - -
27/07:00pm - - - - - SW 32 41 17 22 - - -
27/06:41pm - - - - - SW 43 63 23 34 - - -
27/06:30pm - - - - - SW 35 46 19 25 - - -
27/06:00pm - - - - - SW 46 70 25 38 - - -
27/05:58pm - - - - - SW 46 70 25 38 - - -
27/05:30pm - - - - - SW 46 59 25 32 - - -
27/05:00pm - - - - - SW 50 63 27 34 - - -
27/04:47pm - - - - - SW 46 65 25 35 - - -
27/04:30pm - - - - - SW 46 63 25 34 - - -
27/04:09pm - - - - - SW 43 61 23 33 - - -
27/04:00pm - - - - - SW 46 61 25 33 - - -
27/03:38pm - - - - - SW 43 63 23 34 - - -
27/03:30pm - - - - - WSW 46 59 25 32 - - -
27/03:22pm - - - - - WSW 41 59 22 32 - - -
27/03:00pm - - - - - WSW 43 56 23 30 - - -
27/02:38pm - - - - - WSW 35 56 19 30 - - -
27/02:30pm - - - - - SW 32 43 17 23 - - -
27/02:00pm - - - - - SW 43 56 23 30 - - -
27/01:41pm - - - - - WSW 50 63 27 34 - - -
27/01:30pm - - - - - W 32 59 17 32 - - -
27/01:06pm - - - - - W 35 56 19 30 - - -
27/01:00pm - - - - - W 37 48 20 26 - - -
27/12:47pm - - - - - WNW 35 57 19 31 - - -
27/12:33pm - - - - - WNW 30 48 16 26 - - -

Other Formats:

Comma delimited format used in spreadsheet applications
http://www.bom.gov.au/fwo/IDW60801/IDW60801.95620.axf

JavaScript Object Notation format (JSON) in row-major order
http://www.bom.gov.au/fwo/IDW60801/IDW60801.95620.json